MEA275 OLBA-UDYZ

Flight info

Callsign MEA275
Flight time N/A
Altitude 36000
Route KAD UL620 BALMA L620 BAPAX DCT INPOR/N0436F350 UT284 SIV/N0379F270 A4 ERZ N161 INDUR
Aircraft A21N/M-SDE2E3FGHIRWXY/LB1

Departure

Time N/A
Airport Beirut Rafic Hariri International Airport (OLBA)

Arrival

Time 2026-05-03 20:52
Airport Zvartnots International Airport (UDYZ)
Time Latitude Longitude Altitude Speed Heading
2026-05-03 20:15 39.92067 38.64130 35738 ft 458 kts 90°
2026-05-03 20:15 39.92628 38.72423 35743 ft 461 kts 90°
2026-05-03 20:16 39.93164 38.80766 35759 ft 464 kts 90°
2026-05-03 20:16 39.93695 38.89140 35774 ft 463 kts 93°
2026-05-03 20:17 39.93828 38.97498 35770 ft 461 kts 94°
2026-05-03 20:17 39.93943 39.05835 35769 ft 460 kts 94°
2026-05-03 20:18 39.94066 39.14181 35745 ft 462 kts 94°
2026-05-03 20:18 39.94199 39.22573 35764 ft 464 kts 94°
2026-05-03 20:19 39.94321 39.30988 35775 ft 465 kts 94°
2026-05-03 20:19 39.94443 39.39410 35789 ft 464 kts 94°
2026-05-03 20:20 39.94560 39.47811 35789 ft 464 kts 94°
2026-05-03 20:20 39.94676 39.56230 35774 ft 465 kts 95°
2026-05-03 20:21 39.94781 39.64692 35780 ft 469 kts 95°
2026-05-03 20:21 39.94879 39.73222 35790 ft 471 kts 95°
2026-05-03 20:22 39.94981 39.81769 35791 ft 472 kts 95°
2026-05-03 20:22 39.95082 39.90323 35795 ft 472 kts 95°
2026-05-03 20:23 39.95171 39.98818 35797 ft 473 kts 95°
2026-05-03 20:23 39.95241 40.07392 35807 ft 473 kts 95°
2026-05-03 20:24 39.95301 40.15990 35811 ft 477 kts 95°
2026-05-03 20:24 39.95359 40.24668 35840 ft 480 kts 95°
2026-05-03 20:25 39.95418 40.33372 35835 ft 480 kts 95°
2026-05-03 20:25 39.95463 40.42064 35830 ft 481 kts 95°
2026-05-03 20:26 39.95497 40.50817 35839 ft 483 kts 95°
2026-05-03 20:26 39.95530 40.59567 35830 ft 484 kts 95°
2026-05-03 20:27 39.95572 40.68363 35849 ft 486 kts 95°
2026-05-03 20:27 39.95592 40.77168 35886 ft 486 kts 95°
2026-05-03 20:28 39.95607 40.85990 35906 ft 488 kts 95°
2026-05-03 20:28 39.95620 40.93412 35933 ft 490 kts 95°
2026-05-03 20:29 39.95627 41.02286 35960 ft 490 kts 95°
2026-05-03 20:29 39.95634 41.11166 35955 ft 491 kts 95°
2026-05-03 20:30 39.95642 41.20063 35963 ft 492 kts 93°
2026-05-03 20:30 39.96217 41.28990 35908 ft 495 kts 88°
2026-05-03 20:31 39.96888 41.37928 35926 ft 495 kts 88°
2026-05-03 20:31 39.97545 41.46860 35926 ft 495 kts 88°
2026-05-03 20:32 39.98196 41.55800 35932 ft 495 kts 88°
2026-05-03 20:32 39.98841 41.64730 35943 ft 494 kts 88°
2026-05-03 20:33 39.99478 41.73658 35943 ft 494 kts 88°
2026-05-03 20:33 40.00156 41.82583 35950 ft 495 kts 88°
2026-05-03 20:34 40.00813 41.91522 35934 ft 494 kts 88°
2026-05-03 20:34 40.01458 42.00436 35946 ft 493 kts 88°
2026-05-03 20:35 40.02077 42.09275 35945 ft 493 kts 88°
2026-05-03 20:35 40.02700 42.18176 35961 ft 493 kts 88°
2026-05-03 20:36 40.03313 42.27093 35950 ft 494 kts 88°
2026-05-03 20:36 40.03927 42.36008 35961 ft 494 kts 88°
2026-05-03 20:37 40.04527 42.44943 35979 ft 494 kts 88°
2026-05-03 20:37 40.05086 42.53878 35976 ft 494 kts 88°
2026-05-03 20:38 40.05637 42.62811 35987 ft 494 kts 89°
2026-05-03 20:38 40.06171 42.71743 35969 ft 494 kts 89°
2026-05-03 20:39 40.06681 42.80689 35287 ft 494 kts 89°
2026-05-03 20:39 40.06932 42.85155 34227 ft 491 kts 88°
2026-05-03 20:39 40.07190 42.89568 33246 ft 485 kts 88°
2026-05-03 20:39 40.07448 42.93965 31925 ft 489 kts 88°
2026-05-03 20:40 40.07724 42.98392 30720 ft 490 kts 88°
2026-05-03 20:40 40.08002 43.02842 29288 ft 495 kts 88°
2026-05-03 20:40 40.08261 43.07331 27833 ft 496 kts 89°
2026-05-03 20:40 40.08507 43.11832 26333 ft 498 kts 89°
2026-05-03 20:41 40.08755 43.16366 24796 ft 501 kts 89°
2026-05-03 20:41 40.09009 43.20918 23402 ft 502 kts 89°
2026-05-03 20:41 40.09263 43.25456 22025 ft 499 kts 89°
2026-05-03 20:41 40.09518 43.29942 21012 ft 492 kts 89°
2026-05-03 20:42 40.09771 43.34345 20242 ft 480 kts 89°
2026-05-03 20:42 40.10014 43.38663 19446 ft 472 kts 89°
2026-05-03 20:42 40.10249 43.42894 18637 ft 463 kts 90°
2026-05-03 20:42 40.10478 43.47063 17701 ft 459 kts 90°
2026-05-03 20:43 40.10710 43.51234 16791 ft 460 kts 90°
2026-05-03 20:43 40.10932 43.55381 15973 ft 457 kts 90°
2026-05-03 20:43 40.11157 43.59445 15206 ft 452 kts 90°
2026-05-03 20:43 40.11370 43.63575 14511 ft 448 kts 90°
2026-05-03 20:44 40.11754 43.67556 13834 ft 450 kts 80°
2026-05-03 20:44 40.12868 43.71349 13116 ft 451 kts 64°
2026-05-03 20:44 40.14476 43.74855 12524 ft 447 kts 60°
2026-05-03 20:44 40.15908 43.78368 12100 ft 427 kts 72°
2026-05-03 20:45 40.16552 43.82015 11713 ft 399 kts 90°
2026-05-03 20:45 40.16352 43.85491 11417 ft 371 kts 105°
2026-05-03 20:45 40.15836 43.88696 11149 ft 352 kts 105°
2026-05-03 20:45 40.15443 43.91780 10926 ft 335 kts 102°
2026-05-03 20:46 40.15186 43.94735 10691 ft 320 kts 100°
2026-05-03 20:46 40.15002 43.97572 10415 ft 307 kts 98°
2026-05-03 20:46 40.14853 44.00296 10173 ft 294 kts 98°
2026-05-03 20:46 40.14707 44.02905 9913 ft 283 kts 98°
2026-05-03 20:47 40.14603 44.05457 9488 ft 280 kts 96°
2026-05-03 20:47 40.14567 44.07993 9037 ft 277 kts 94°
2026-05-03 20:47 40.14571 44.10474 8669 ft 267 kts 93°
2026-05-03 20:47 40.14583 44.12824 8430 ft 248 kts 93°
2026-05-03 20:48 40.14595 44.14976 8148 ft 226 kts 94°
2026-05-03 20:48 40.14606 44.16905 7956 ft 199 kts 94°
2026-05-03 20:48 40.14614 44.18632 7599 ft 188 kts 94°
2026-05-03 20:48 40.14623 44.20341 7110 ft 184 kts 93°
2026-05-03 20:49 40.14632 44.21958 6823 ft 170 kts 94°
2026-05-03 20:49 40.14634 44.23502 6331 ft 171 kts 94°
2026-05-03 20:49 40.14640 44.24971 5792 ft 157 kts 94°
2026-05-03 20:49 40.14631 44.26326 5229 ft 143 kts 95°
2026-05-03 20:50 40.14647 44.27618 4760 ft 141 kts 92°
2026-05-03 20:50 40.14653 44.28879 4363 ft 140 kts 94°
2026-05-03 20:50 40.14640 44.30150 4049 ft 137 kts 92°
2026-05-03 20:50 40.14656 44.31373 3750 ft 136 kts 90°
2026-05-03 20:51 40.14658 44.32641 3550 ft 139 kts 90°
2026-05-03 20:51 40.14670 44.33912 3360 ft 140 kts 87°
2026-05-03 20:51 40.14699 44.35185 3175 ft 140 kts 86°
2026-05-03 20:51 40.14710 44.36461 2986 ft 140 kts 86°
2026-05-03 20:52 40.14720 44.37733 2848 ft 139 kts 87°
2026-05-03 20:52 40.14732 44.38856 2835 ft 91 kts 90°
2026-05-03 20:52 40.14732 44.39363 2835 ft 46 kts 91°
2026-05-03 20:52 40.14734 44.39787 2839 ft 35 kts 94°
2026-05-03 20:53 40.14755 44.40013 2842 ft 21 kts 36°
2026-05-03 20:53 40.14875 44.40032 2842 ft 18 kts 357°
2026-05-03 20:53 40.14936 44.40031 2841 ft 7 kts
2026-05-03 20:53 40.14994 44.40010 2843 ft 10 kts 345°
2026-05-03 20:54 40.15049 44.40005 2843 ft 7 kts 359°
2026-05-03 20:54 40.15091 44.40005 2843 ft 0 kts